Location: Miles
(41.4492°N, 81.6087°W)
Time: 16:24:12
(UTC+00:00)

A-11 Canister half - Pass Details

Date: 13 September 2024
Orbit: 1515 x 1685 km, 47.2° (Epoch: 14 October)

Event Time Altitude Azimuth Distance (km) Brightness Sun altitude
Rises 01:26:45 0° 247° (WSW) 4,714 12.2 -20.1°
Reaches altitude 10° 01:29:50 10° 248° (WSW) 3,714 11.6 -20.7°
Maximum altitude 01:39:12 82° 336° (NNW) 1,534 9.0 -22.2°
Enters shadow 01:47:24 15° 65° (ENE) 3,329 10.4 -23.6°
